FW6155 Weather Reports


Display with metric or nautical units.
time (UTC)temp
F
wind
direction
speed
MPH
gust
MPH
rain 1hr
in
rain 24hr
in
rain mn
in
humidity
%
barometer
mb
20260505234558 62 0.0 0.0 0.00 0.00 0.00 74 1016.7
20260505233103 63 0.0 0.0 0.00 0.00 0.00 73 1016.6
20260505231553 63 0.0 0.0 0.00 0.00 0.00 72 1016.8
20260505230044 62 0.0 0.0 0.00 0.00 0.00 73 1016.8
20260505224551 62 0.0 0.0 0.00 0.00 0.00 73 1016.8
20260505223051 62 0.0 0.0 0.00 0.00 0.00 74 1017.1
20260505221544 62 0.0 0.0 0.00 0.00 0.00 74 1017.2
20260505220053 62 0.0 0.0 0.00 0.00 0.00 74 1017.3
20260505214553 61 0.0 0.0 0.00 0.00 0.00 75 1017.4
20260505213044 61 0.0 0.0 0.00 0.00 0.00 76 1017.4
20260505211541 60 0.0 0.0 0.00 0.00 0.00 77 1017.4
20260505210044 60 0.0 0.0 0.00 0.00 0.00 78 1017.4
20260505204546 60 0.0 0.0 0.00 0.00 0.00 78 1017.6
20260505203050 59 0.0 0.0 0.00 0.00 0.00 78 1017.6
20260505201551 59 0.0 0.0 0.00 0.00 0.00 78 1017.5
20260505200048 59 0.0 0.0 0.00 0.00 0.00 79 1017.4
20260505194551 59 0.0 0.0 0.00 0.00 0.00 79 1017.6
20260505193042 59 0.0 0.0 0.00 0.00 0.00 80 1017.6
20260505191544 58 0.0 0.0 0.00 0.00 0.00 80 1017.6
20260505190050 58 0.0 0.0 0.00 0.00 0.00 81 1017.4
20260505184547 58 0.0 0.0 0.00 0.00 0.00 81 1017.4
20260505183043 58 0.0 0.0 0.00 0.00 0.00 81 1017.4
20260505181555 57 0.0 0.0 0.00 0.00 0.00 82 1017.4
20260505180051 57 0.0 0.0 0.00 0.00 0.00 81 1017.3
20260505174555 57 0.0 0.0 0.00 0.00 0.00 82 1017.4
20260505173045 57 0.0 0.0 0.00 0.00 0.00 82 1017.4
20260505171545 57 0.0 0.0 0.00 0.00 0.00 82 1017.3
20260505170043 56 0.0 0.0 0.00 0.00 0.00 82 1017.2
20260505164558 56 0.0 0.0 0.00 0.00 0.00 82 1017.1
20260505163054 56 0.0 0.0 0.00 0.00 0.00 83 1017.1
20260505161545 56 0.0 0.0 0.00 0.00 0.00 82 1017.0
20260505153043 56 0.0 0.0 0.00 0.00 0.00 83 1017.0
20260505151541 56 0.0 0.0 0.00 0.00 0.00 83 1016.8
20260505130105 56 0.0 0.0 0.00 0.00 0.00 84 1015.5
20260505124549 55 0.0 0.0 0.00 0.00 0.00 84 1015.5
20260505123051 55 0.0 0.0 0.00 0.00 0.00 84 1015.4
20260505121548 55 0.0 0.0 0.00 0.00 0.00 84 1015.3
20260505120058 55 0.0 0.0 0.00 0.00 0.00 84 1015.3
20260505114552 55 0.0 0.0 0.00 0.00 0.00 84 1015.3
20260505113050 55 0.0 0.0 0.00 0.00 0.00 84 1015.1
20260505111543 55 0.0 0.0 0.00 0.00 0.00 85 1015.1
20260505101544 55 0.0 0.0 0.00 0.00 0.00 84 1014.8
20260505100044 55 0.0 0.0 0.00 0.00 0.00 84 1014.7
20260505094544 55 0.0 0.0 0.00 0.00 0.00 85 1014.5
20260505093052 55 0.0 0.0 0.00 0.00 0.00 85 1014.5
20260505091539 55 0.0 0.0 0.00 0.00 0.00 85 1014.4
20260505090047 55 0.0 0.0 0.00 0.00 0.00 85 1014.1
20260505084545 55 0.0 0.0 0.00 0.00 0.00 84 1014.0
20260505083045 56 0.0 0.0 0.00 0.00 0.00 84 1014.1
20260505081553 56 0.0 0.0 0.00 0.00 0.00 83 1014.0
20260505080047 56 0.0 0.0 0.00 0.00 0.00 83 1013.9
20260505074539 56 0.0 0.0 0.00 0.00 0.00 83 1013.8
20260505073049 56 0.0 0.0 0.00 0.00 0.00 83 1013.7
20260505071551 56 0.0 0.0 0.00 0.00 0.00 82 1013.5
20260505070043 57 0.0 0.0 0.00 0.00 0.00 82 1013.5
20260505064543 57 0.0 0.0 0.00 0.00 0.00 81 1013.3
20260505063041 58 0.0 0.0 0.00 0.00 0.00 81 1013.1
20260505061548 58 0.0 0.0 0.00 0.00 0.00 80 1012.9
20260505060049 59 0.0 0.0 0.00 0.00 0.00 79 1012.7
20260505054554 60 0.0 0.0 0.00 0.00 0.00 78 1012.7
20260505053056 61 0.0 0.0 0.00 0.00 0.00 76 1012.4
20260505051550 62 0.0 0.0 0.00 0.00 0.00 74 1012.5
20260505041546 66 0.0 0.0 0.00 0.00 0.00 67 1011.6
20260505040045 67 0.0 0.0 0.00 0.00 0.00 66 1011.5
20260505034546 68 0.0 0.0 0.00 0.00 0.00 64 1011.1
20260505033048 69 0.0 0.0 0.00 0.00 0.00 62 1010.7
20260505031546 70 0.0 0.0 0.00 0.00 0.00 60 1010.5
20260505030100 71 0.0 0.0 0.00 0.00 0.00 60 1010.3
20260505024545 71 0.0 0.0 0.00 0.00 0.00 61 1010.1
20260505023048 72 0.0 0.0 0.00 0.00 0.00 60 1010.2
20260505021547 73 0.0 0.0 0.00 0.00 0.00 57 1010.2
20260505020047 73 0.0 0.0 0.00 0.00 0.00 56 1010.1
20260505014546 74 0.0 0.0 0.00 0.00 0.00 55 1010.1
20260505013043 75 0.0 0.0 0.00 0.00 0.00 54 1010.2
20260505011550 75 0.0 0.0 0.00 0.00 0.00 50 1010.1
20260505010045 76 0.0 0.0 0.00 0.00 0.00 47 1010.1
20260505004549 76 0.0 0.0 0.00 0.00 0.00 47 1010.2
20260505003043 76 0.0 0.0 0.00 0.00 0.00 46 1010.2
20260505001544 76 0.0 0.0 0.00 0.00 0.00 45 1010.4
20260505000042 76 0.0 0.0 0.00 0.00 0.00 43 1010.4